Regional Weather Roundup
Issued by NWS Cleveland, OH

Home | Current Version | Previous Version | Graphics & Text | Print | Product List | Glossary On
Versions: 1 2 3 4 5 6 7 8 9 10 11 12 13 14 15 16 17 18 19 20 21 22 23 24 25 26 27 28 29 30 31 32 33 34 35 36 37 38 39 40 41 42 43 44 45 46 47 48 49 50
000
ASUS41 KCLE 211802
RWRCLE
OHIO REGIONAL WEATHER ROUNDUP
NATIONAL WEATHER SERVICE CLEVELAND, OH
200 PM EDT TUE OCT 21 2014

NOTE: "FAIR" INDICATES FEW OR NO CLOUDS BELOW 12,000 FEET WITH NO
SIGNIFICANT WEATHER AND/OR OBSTRUCTIONS TO VISIBILITY.

OHZ001>008-015>018-024>027-034-035-043-044-211900-
   NORTHWEST OHIO

CITY           SKY/WX    TMP DP  RH WIND       PRES   REMARKS
DEFIANCE       CLOUDY    51  41  68 N9G18     30.07R
FINDLAY        CLOUDY    51  42  71 N13G22    30.03R
TOLEDO EXPRESS CLOUDY    48  39  71 N17G25    30.06R
TOLEDO EXEC    CLOUDY    49  39  68 N10       30.06R
LIMA           CLOUDY    52  42  69 N12G20    30.03S
$$

OHZ009>014-019>023-028>033-038-089-211900-
   NORTHEAST OHIO

CITY           SKY/WX    TMP DP  RH WIND       PRES   REMARKS
CLE-HOPKINS    LGT RAIN  49  42  77 NW16      29.99S
CLE-LAKEFRONT  CLOUDY    51  43  74 NW21G29   29.96R
CUY CO. ARPT   CLOUDY    52  46  82 NW18      29.95S
LORAIN-ELYRIA  CLOUDY    48  43  82 N15G21    29.99R
ASHTABULA      CLOUDY    50  44  80 N8        29.92S
AKRON-CANTON   CLOUDY    49  44  83 N15G23    29.94R
WOOSTER        CLOUDY    49  44  83 N14       29.97R
MANSFIELD      CLOUDY    47  45  93 NW13      29.98S
YOUNGSTOWN     LGT RAIN  49  46  90 NW13      29.91S
$$

OHZ042-051>053-060>062-070>072-077>081-211900-
  SOUTHWEST OHIO

CITY           SKY/WX    TMP DP  RH WIND       PRES   REMARKS
CINC-COVINGTON PTSUNNY   56  37  49 N14G22    30.04S
CINC-LUNKEN    CLOUDY    54  40  59 N10G21    30.06R
HAMILTON       CLOUDY    53  42  66 N9        30.06S
DAYTON         LGT RAIN  51  45  79 N13       30.05S
WRIGHT-PAT AFB NOT AVBL
DAYTON GENERAL CLOUDY    52  44  74 NW13      30.03F
WILMINGTON     CLOUDY    51  40  65 N15       30.03S
$$

OHZ036-037-039>041-045>050-054>059-063>069-073>076-082>088-211900-
  CENTRAL AND SOUTHEAST OHIO

CITY           SKY/WX    TMP DP  RH WIND       PRES   REMARKS
COLUMBUS       CLOUDY    51  44  77 NW13      29.98S
OSU AIRPORT    CLOUDY    50  45  83 NW12      29.99S
BOLTON FIELD   CLOUDY    50  46  87 NW9       30.00S
RICKENBACK AFB NOT AVBL
NEWARK         LGT RAIN  50  46  86 NW9       29.97S
MARION         LGT RAIN  48  44  86 N21       30.01R FOG
LANCASTER      CLOUDY    51  46  83 NW7       29.98F
ZANESVILLE     CLOUDY    51  45  79 NW9       29.95S
NEW PHILLY     LGT RAIN  51  46  83 N13       29.94R
$$



USA.gov is the U.S. government's official web portal to all federal, state and local government web resources and services.